This is the latest recevied weather packets stored in our database for station/object KB9HUO. If no packets are shown the sender has not sent any weather packets the latest 10 day(s).
| Time | Temp. | Humidity | Pressure | Rain* | Wind** | Luminosity | Snow |
|---|---|---|---|---|---|---|---|
| 1778017775 | 16.11° C | 97% | 1008.1 hPa | 3.05 mm | - | 8 W/m² | - |
| 1778017473 | 16.11° C | 97% | 1007.8 hPa | 3.56 mm | - | 24 W/m² | - |
| 1778017170 | 16.11° C | 97% | 1007.8 hPa | 4.83 mm | - | 13 W/m² | - |
| 1778016867 | 16.11° C | 97% | 1007.8 hPa | 6.1 mm | - | 20 W/m² | - |
| 1778016563 | 16.11° C | 97% | 1007.7 hPa | 6.1 mm | - | 25 W/m² | - |
| 1778016261 | 16.11° C | 97% | 1007.7 hPa | 1.27 mm | - | 24 W/m² | - |
| 1778015956 | 16.11° C | 97% | 1007.6 hPa | 0 mm | - | 42 W/m² | - |
| 1778015654 | 16.11° C | 97% | 1007.8 hPa | 0 mm | - | 22 W/m² | - |
| 1778015350 | 16.11° C | 97% | 1007.6 hPa | 0 mm | - | 21 W/m² | - |
| 1778015048 | 16.11° C | 96% | 1007.8 hPa | 0 mm | - | 43 W/m² | - |
| 1778014744 | 16.11° C | 96% | 1007.9 hPa | 1.78 mm | - | 38 W/m² | - |
| 1778014443 | 16.11° C | 96% | 1007.9 hPa | 6.1 mm | - | 42 W/m² | - |
| 1778014139 | 16.11° C | 96% | 1008 hPa | 8.89 mm | - | 27 W/m² | - |
| 1778013837 | 16.11° C | 96% | 1008.3 hPa | 7.87 mm | - | 47 W/m² | - |
| 1778013534 | 16.11° C | 96% | 1008.2 hPa | 10.67 mm | - | 36 W/m² | - |
| 1778013230 | 16.11° C | 96% | 1008.2 hPa | 15.49 mm | - | 34 W/m² | - |
| 1778012927 | 16.11° C | 96% | 1008.4 hPa | 10.67 mm | - | 36 W/m² | - |
| 1778012623 | 16.11° C | 96% | 1008.1 hPa | 10.16 mm | - | 37 W/m² | - |
| 1778012320 | 16.67° C | 95% | 1008.4 hPa | 18.03 mm | - | 43 W/m² | - |
| 1778012017 | 16.67° C | 95% | 1008.4 hPa | 18.54 mm | - | 84 W/m² | - |
| 1778011716 | 16.67° C | 95% | 1008.7 hPa | 8.89 mm | - | 44 W/m² | - |
| 1778011412 | 16.67° C | 95% | 1008.6 hPa | 3.05 mm | - | 35 W/m² | - |
| 1778011108 | 16.67° C | 95% | 1008.4 hPa | 1.27 mm | - | 61 W/m² | - |
| 1778010805 | 16.67° C | 95% | 1008.6 hPa | 1.27 mm | - | 46 W/m² | - |
| 1778010502 | 16.67° C | 95% | 1008.5 hPa | 1.27 mm | - | 65 W/m² | - |
* Rain latest hour (hover to see other rain measurements)
** Current wind speed in m/s (hover to see current wind gust speed)